Athens Eleftherios, Greece

12:08 PM EET on January 19, 2018 (GMT +0200)
Eleftherios Venizelos International

Weather History for LGAV - April, 2013

Change the Weather History Date:

Thursday, April 25, 2013

  Actual Average (LGAT) Record (LGAT)
Temperature  
Mean Temperature 63 °F -  
Max Temperature 78 °F 67 °F 76 °F (2013)
Min Temperature 48 °F 53 °F 51 °F (1998)
Degree Days  
Heating Degree Days 2    
Growing Degree Days 13 (Base 50)    
Moisture  
Dew Point 43 °F    
Average Humidity 48    
Maximum Humidity 76    
Minimum Humidity 30    
Precipitation  
Precipitation 0.00 in - - ()
Sea Level Pressure  
Sea Level Pressure 30.25 in    
Wind  
Wind Speed 5 mph ()    
Max Wind Speed 15 mph    
Max Gust Speed -    
Visibility 6.2 miles    
Events      
Averages and records for this station are not official NWS values.
T = Trace of Precipitation, MM = Missing Value Source: Averaged Metar Reports

Daily Weather History Graph

Daily Weather History Graph

Search for Another Location

Airport or City:

Trip Planner

Search our weather history database for the weather conditions in past years. The results will help you decide how hot, cold, wet, or windy it might be!

Date:

Astronomy

Apr. 25, 2013 Rise Set
Actual Time 6:35 AM EEST 8:09 PM EEST
Civil Twilight 6:07 AM EEST 8:37 PM EEST
Nautical Twilight 5:34 AM EEST 9:10 PM EEST
Astronomical Twilight 4:59 AM EEST 9:46 PM EEST
Moon 8:00 PM EEST (4/25) 6:05 AM EEST (4/25)
Length of Visible Light 14h 29m
Length of Day
13h 33m
Full, 100% of the Moon is Illuminated
Apr 25
Full
Apr 25
Full
May 2
Last Quarter
May 10
New
May 18
First Quarter

Hourly Weather History & Observations

Time (EEST) Temp. Dew Point Humidity Pressure Visibility Wind Dir Wind Speed Gust Speed Precip Events Conditions
12:20 AM 50.0 °F 41.0 °F 71% 30.30 in - NW 2.3 mph - N/A   Clear
12:50 AM 50.0 °F 42.8 °F 76% 30.30 in - West 2.3 mph - N/A   Clear
1:20 AM 51.8 °F 44.6 °F 76% 30.30 in - West 2.3 mph - N/A   Clear
1:50 AM 51.8 °F 41.0 °F 67% 30.30 in - WSW 3.5 mph - N/A   Clear
2:20 AM 51.8 °F 41.0 °F 67% 30.27 in - WSW 4.6 mph - N/A   Clear
2:50 AM 51.8 °F 41.0 °F 67% 30.27 in - WSW 2.3 mph - N/A   Clear
3:20 AM 51.8 °F 41.0 °F 67% 30.27 in - West 3.5 mph - N/A   Clear
3:50 AM 50.0 °F 39.2 °F 66% 30.27 in - West 4.6 mph - N/A   Clear
4:20 AM 53.6 °F 42.8 °F 67% 30.27 in - Variable 1.2 mph - N/A   Clear
4:50 AM 48.2 °F 41.0 °F 76% 30.27 in - WNW 2.3 mph - N/A   Clear
5:50 AM 50.0 °F 39.2 °F 66% 30.27 in - SSW 3.5 mph - N/A   Clear
6:20 AM 51.8 °F 41.0 °F 67% 30.27 in - WSW 2.3 mph - N/A   Clear
6:50 AM 51.8 °F 41.0 °F 67% 30.27 in - WSW 3.5 mph - N/A   Clear
7:20 AM 55.4 °F 41.0 °F 58% 30.27 in - West 2.3 mph - N/A   Clear
7:50 AM 57.2 °F 42.8 °F 59% 30.27 in - Variable 3.5 mph - N/A   Clear
8:20 AM 62.6 °F 46.4 °F 55% 30.30 in - Variable 2.3 mph - N/A   Clear
8:50 AM 64.4 °F 50.0 °F 59% 30.30 in - SE 1.2 mph - N/A   Clear
9:20 AM 71.6 °F 44.6 °F 38% 30.30 in - NNE 11.5 mph - N/A   Clear
9:50 AM 71.6 °F 44.6 °F 38% 30.30 in - NNE 15.0 mph - N/A   Clear
10:20 AM 73.4 °F 42.8 °F 33% 30.30 in - NNE 13.8 mph - N/A   Clear
10:50 AM 73.4 °F 42.8 °F 33% 30.30 in - NNE 12.7 mph - N/A   Clear
11:20 AM 73.4 °F 42.8 °F 33% 30.30 in - North 10.4 mph - N/A   Clear
11:50 AM 75.2 °F 44.6 °F 34% 30.30 in - NNE 12.7 mph - N/A   Clear
12:20 PM 75.2 °F 42.8 °F 31% 30.30 in - NNE 13.8 mph - N/A   Clear
12:50 PM 75.2 °F 42.8 °F 31% 30.30 in - NNE 13.8 mph - N/A   Clear
1:20 PM 77.0 °F 44.6 °F 32% 30.27 in - NNE 12.7 mph - N/A   Clear
1:50 PM 77.0 °F 44.6 °F 32% 30.27 in 6.2 mi NNE 12.7 mph - N/A   Partly Cloudy
2:20 PM 77.0 °F 44.6 °F 32% 30.27 in 6.2 mi NE 11.5 mph - N/A   Partly Cloudy
2:50 PM 78.8 °F 44.6 °F 30% 30.27 in 6.2 mi ENE 10.4 mph - N/A   Partly Cloudy
3:20 PM 78.8 °F 44.6 °F 30% 30.24 in 6.2 mi ENE 11.5 mph - N/A   Partly Cloudy
3:50 PM 78.8 °F 46.4 °F 32% 30.21 in - East 9.2 mph - N/A   Clear
4:20 PM 77.0 °F 44.6 °F 32% 30.21 in - NE 15.0 mph - N/A   Clear
4:50 PM 77.0 °F 44.6 °F 32% 30.21 in - ENE 15.0 mph - N/A   Clear
5:20 PM 77.0 °F 44.6 °F 32% 30.21 in 6.2 mi ENE 12.7 mph - N/A   Partly Cloudy
5:50 PM 75.2 °F 42.8 °F 31% 30.21 in - NNE 9.2 mph - N/A   Clear
6:20 PM 75.2 °F 42.8 °F 31% 30.21 in - NE 10.4 mph - N/A   Clear
6:50 PM 75.2 °F 44.6 °F 34% 30.18 in - NE 12.7 mph - N/A   Clear
7:20 PM 73.4 °F 42.8 °F 33% 30.18 in - NE 13.8 mph - N/A   Clear
7:50 PM 71.6 °F 44.6 °F 38% 30.18 in - NW 4.6 mph - N/A   Clear
8:20 PM 69.8 °F 44.6 °F 40% 30.18 in - NNE 4.6 mph - N/A   Clear
8:50 PM 68.0 °F 44.6 °F 43% 30.18 in - Variable 2.3 mph - N/A   Clear
9:20 PM 66.2 °F 44.6 °F 46% 30.18 in - ENE 4.6 mph - N/A   Clear
9:50 PM 64.4 °F 44.6 °F 49% 30.21 in - Variable 1.2 mph - N/A   Clear
10:20 PM 62.6 °F 44.6 °F 52% 30.18 in - WNW 2.3 mph - N/A   Clear
10:50 PM 62.6 °F 44.6 °F 52% 30.18 in - West 2.3 mph - N/A   Clear
11:20 PM 57.2 °F 44.6 °F 63% 30.18 in - West 5.8 mph - N/A   Clear
11:50 PM 55.4 °F 44.6 °F 67% 30.18 in - Variable 2.3 mph - N/A   Clear